Total_Precipitation_Accumulation
0.13 0.26 0.58 0.65 0.61 0.61 0.70 0.71 0.70 0.67 0.67 0.71 0.72 0.74 0.70 0.67 0.62 0.60 0.63 0.66 0.66 0.70 0.83 0.92 0.96 0.91 0.82 0.76 0.74 0.71 0.69 0.61 0.57 0.52 0.51 0.52 0.50 0.43 0.35 0.32 0.30 0.41 0.54
0.12 0.23 0.54 0.61 0.60 0.65 0.72 0.69 0.65 0.63 0.64 0.67 0.69 0.71 0.70 0.64 0.62 0.63 0.66 0.68 0.72 0.77 0.82 0.89 0.90 0.87 0.77 0.72 0.75 0.73 0.66 0.51 0.43 0.38 0.36 0.39 0.47 0.48 0.42 0.39 0.39 0.53 0.55
0.12 0.22 0.43 0.55 0.58 0.70 0.73 0.67 0.62 0.60 0.60 0.64 0.69 0.70 0.70 0.66 0.64 0.65 0.66 0.67 0.75 0.83 0.85 0.86 0.81 0.77 0.74 0.73 0.68 0.67 0.64 0.51 0.38 0.32 0.29 0.35 0.49 0.57 0.55 0.47 0.47 0.53 0.55
0.14 0.22 0.31 0.51 0.57 0.72 0.76 0.69 0.67 0.64 0.62 0.66 0.71 0.70 0.72 0.75 0.74 0.68 0.66 0.71 0.76 0.87 0.92 0.85 0.77 0.76 0.76 0.72 0.62 0.60 0.59 0.50 0.38 0.31 0.23 0.32 0.55 0.73 0.64 0.56 0.50 0.50 0.52
0.14 0.19 0.33 0.54 0.59 0.71 0.79 0.79 0.75 0.73 0.72 0.72 0.73 0.68 0.71 0.75 0.74 0.70 0.69 0.74 0.76 0.81 0.81 0.80 0.77 0.79 0.75 0.69 0.58 0.54 0.61 0.58 0.40 0.23 0.23 0.27 0.47 0.88 0.68 0.60 0.55 0.50 0.51
0.16 0.21 0.38 0.60 0.72 0.78 0.81 0.86 0.83 0.80 0.82 0.84 0.80 0.78 0.81 0.82 0.79 0.73 0.69 0.69 0.71 0.76 0.78 0.73 0.73 0.76 0.77 0.70 0.60 0.58 0.66 0.69 0.39 0.21 0.27 0.33 0.47 0.84 0.75 0.67 0.59 0.53 0.52
0.18 0.25 0.40 0.68 0.86 0.88 0.87 0.91 0.92 0.94 0.97 1.00 0.96 0.94 0.94 0.91 0.89 0.86 0.80 0.71 0.66 0.65 0.68 0.71 0.70 0.72 0.77 0.71 0.65 0.72 0.77 0.70 0.39 0.35 0.30 0.33 0.52 0.81 0.85 0.78 0.68 0.61 0.55
0.23 0.32 0.49 0.83 0.98 0.98 0.97 1.01 1.02 1.02 1.05 1.06 1.05 1.03 1.01 0.96 0.92 0.96 0.91 0.78 0.66 0.57 0.55 0.58 0.61 0.66 0.69 0.68 0.70 0.79 0.77 0.52 0.27 0.20 0.21 0.29 0.52 0.85 1.09 1.01 0.81 0.69 0.61
0.35 0.42 0.60 0.83 1.04 1.12 1.11 1.08 1.04 1.07 1.10 1.09 1.08 1.06 1.02 0.94 0.93 0.93 0.90 0.81 0.69 0.61 0.56 0.53 0.54 0.58 0.60 0.63 0.67 0.66 0.56 0.39 0.23 0.25 0.22 0.31 0.52 0.93 1.29 1.21 0.97 0.78 0.68
0.54 0.62 0.75 0.92 1.03 1.10 1.14 1.12 1.07 1.04 1.04 1.07 1.07 1.05 0.94 0.89 0.88 0.86 0.81 0.75 0.68 0.67 0.63 0.56 0.54 0.55 0.51 0.49 0.51 0.50 0.43 0.34 0.23 0.27 0.32 0.35 0.43 0.87 1.32 1.31 1.15 0.96 0.83
0.77 0.91 1.00 1.12 1.19 1.24 1.24 1.17 1.19 1.14 1.13 1.10 1.07 1.01 0.96 0.91 0.86 0.82 0.75 0.70 0.69 0.69 0.64 0.58 0.53 0.55 0.50 0.44 0.42 0.41 0.36 0.29 0.26 0.33 0.36 0.34 0.46 0.89 1.36 1.44 1.32 1.17 1.08
0.77 0.95 1.05 1.22 1.30 1.37 1.34 1.35 1.35 1.21 1.17 1.12 1.00 0.92 0.92 0.91 0.88 0.79 0.75 0.70 0.68 0.70 0.70 0.69 0.61 0.54 0.47 0.40 0.43 0.43 0.35 0.29 0.32 0.28 0.27 0.28 0.51 0.95 1.33 1.46 1.43 1.29 1.24
0.78 0.96 1.15 1.29 1.45 1.51 1.48 1.45 1.42 1.33 1.25 1.20 1.08 1.03 1.04 1.06 0.99 0.93 0.85 0.78 0.76 0.74 0.79 0.80 0.80 0.68 0.60 0.54 0.54 0.48 0.38 0.37 0.34 0.30 0.23 0.26 0.44 0.82 1.20 1.42 1.52 1.52 1.49
0.93 1.05 1.28 1.50 1.64 1.69 1.68 1.59 1.45 1.34 1.24 1.23 1.18 1.15 1.17 1.14 1.04 0.95 0.90 0.82 0.78 0.77 0.79 0.83 0.85 0.79 0.73 0.66 0.62 0.57 0.50 0.43 0.36 0.35 0.30 0.29 0.33 0.55 0.86 1.13 1.38 1.62 1.70
0.93 1.08 1.35 1.59 1.74 1.81 1.93 1.88 1.62 1.45 1.30 1.25 1.26 1.18 1.11 1.09 1.03 0.95 0.87 0.79 0.71 0.68 0.68 0.70 0.71 0.73 0.72 0.68 0.65 0.60 0.59 0.54 0.45 0.38 0.33 0.31 0.29 0.38 0.58 0.82 1.11 1.52 1.81
0.93 1.10 1.36 1.64 1.83 1.93 1.91 1.97 1.89 1.74 1.55 1.42 1.30 1.21 1.12 1.06 1.02 0.93 0.84 0.74 0.65 0.58 0.53 0.52 0.50 0.55 0.59 0.57 0.54 0.52 0.48 0.49 0.50 0.48 0.42 0.39 0.31 0.32 0.43 0.66 0.92 1.24 1.64
0.93 1.20 1.45 1.74 1.99 2.04 1.96 1.93 2.00 2.02 1.89 1.72 1.51 1.35 1.24 1.13 1.05 1.01 0.93 0.85 0.78 0.70 0.63 0.58 0.53 0.49 0.50 0.50 0.50 0.50 0.46 0.45 0.47 0.51 0.51 0.48 0.41 0.34 0.36 0.51 0.74 0.99 1.33
1.00 1.19 1.52 1.81 2.00 2.00 2.06 2.10 2.04 2.08 2.09 1.89 1.70 1.57 1.38 1.22 1.11 1.09 1.02 0.89 0.85 0.86 0.80 0.75 0.68 0.63 0.54 0.49 0.48 0.51 0.50 0.48 0.47 0.49 0.52 0.50 0.48 0.40 0.35 0.38 0.56 0.82 1.11
1.00 1.13 1.40 1.72 1.87 1.95 2.04 2.22 2.28 2.28 2.19 2.03 1.82 1.65 1.55 1.40 1.21 1.10 1.06 0.97 0.88 0.85 0.82 0.81 0.78 0.75 0.70 0.63 0.58 0.55 0.55 0.52 0.48 0.49 0.52 0.54 0.55 0.51 0.48 0.39 0.41 0.57 0.84
1.06 1.21 1.39 1.71 1.91 2.07 2.18 2.24 2.36 2.40 2.32 2.19 2.05 1.83 1.73 1.63 1.47 1.28 1.15 1.08 1.02 0.95 0.87 0.79 0.78 0.79 0.77 0.72 0.67 0.61 0.60 0.58 0.56 0.52 0.56 0.64 0.63 0.56 0.56 0.54 0.48 0.42 0.52
1.09 1.22 1.36 1.65 1.81 2.01 2.07 2.01 1.94 2.04 2.07 2.10 2.11 2.06 1.95 1.87 1.76 1.60 1.41 1.27 1.22 1.11 1.00 0.89 0.81 0.79 0.77 0.74 0.74 0.68 0.62 0.57 0.51 0.46 0.48 0.60 0.72 0.73 0.68 0.69 0.71 0.61 0.50
1.01 1.14 1.31 1.54 1.71 1.82 1.79 1.76 1.75 1.77 1.86 1.93 2.00 2.08 2.10 2.04 1.90 1.78 1.63 1.47 1.34 1.26 1.13 1.01 0.91 0.84 0.79 0.71 0.73 0.77 0.68 0.62 0.53 0.42 0.36 0.43 0.53 0.62 0.65 0.67 0.74 0.79 0.70
1.01 1.10 1.23 1.44 1.60 1.78 1.92 1.96 1.95 2.07 2.09 1.99 1.90 1.93 2.00 1.99 1.91 1.78 1.67 1.61 1.53 1.42 1.29 1.18 1.08 1.00 0.92 0.80 0.71 0.89 0.93 0.71 0.50 0.38 0.34 0.35 0.36 0.41 0.47 0.52 0.60 0.68 0.77
0.99 1.14 1.29 1.47 1.69 1.80 1.99 2.02 1.83 1.76 1.81 1.71 1.68 1.67 1.80 1.93 1.92 1.82 1.76 1.72 1.60 1.49 1.36 1.27 1.26 1.22 1.20 1.14 0.97 0.84 0.80 0.73 0.74 0.54 0.34 0.30 0.28 0.29 0.31 0.36 0.44 0.50 0.62
1.05 1.16 1.36 1.50 1.72 1.88 1.96 1.98 1.83 1.67 1.59 1.66 1.79 1.84 1.80 1.82 1.91 1.88 1.77 1.74 1.65 1.51 1.43 1.36 1.27 1.27 1.27 1.27 1.17 1.01 0.88 0.73 0.68 0.77 0.55 0.36 0.35 0.33 0.33 0.35 0.37 0.41 0.48
1.03 1.17 1.32 1.54 1.70 1.92 2.01 1.97 1.77 1.60 1.51 1.56 1.65 1.85 1.94 1.92 1.94 1.95 1.86 1.78 1.68 1.51 1.42 1.42 1.36 1.29 1.27 1.26 1.21 1.12 1.06 0.98 0.79 0.80 0.73 0.48 0.42 0.40 0.39 0.40 0.41 0.43 0.48